TRA731Q EHAM-LEZL

Flight info

Callsign TRA731Q
Flight time N/A
Altitude 33000
Route KUDAD2Z WOODY N872 CIV/N0444F350 N872 MEDIL DCT KOVIN DCT DUCRA DCT RESMI DCT DEKOD DCT DISAK DCT ARKIP DCT ARNAV DCT LMG DCT UVELI DCT OSMOB DCT ARVID DCT PPN DCT NOLSA DCT ALEPO DCT VASUM DCT BANEV DCT BAN DCT GOTOR DCT KAMPO DCT MONTO DCT MOLIN DCT HIJ HIJ4E
Aircraft A21N/M-SDE2E3FGHIJ1RWXY/LB1

Departure

Time 2026-05-07 15:46
Airport Amsterdam Airport Schiphol (EHAM)

Arrival

Time N/A
Airport Seville Airport (LEZL)
Time Latitude Longitude Altitude Speed Heading
2026-05-07 15:23 52.30428 4.76666 -1 ft 0 kts 28°
2026-05-07 15:32 52.30409 4.76649 -1 ft 4 kts 28°
2026-05-07 15:32 52.30391 4.76633 -1 ft 4 kts 42°
2026-05-07 15:33 52.30381 4.76601 -1 ft 4 kts 101°
2026-05-07 15:33 52.30389 4.76566 -1 ft 1 kts 119°
2026-05-07 15:33 52.30389 4.76565 -1 ft 0 kts 119°
2026-05-07 15:37 52.30376 4.76601 -1 ft 9 kts 119°
2026-05-07 15:37 52.30331 4.76716 -1 ft 13 kts 125°
2026-05-07 15:37 52.30320 4.76842 -1 ft 11 kts 60°
2026-05-07 15:38 52.30375 4.76990 -1 ft 19 kts 58°
2026-05-07 15:38 52.30442 4.77162 -1 ft 17 kts 57°
2026-05-07 15:38 52.30496 4.77302 -1 ft 14 kts 57°
2026-05-07 15:38 52.30543 4.77421 -1 ft 10 kts 57°
2026-05-07 15:39 52.30573 4.77499 -1 ft 8 kts 55°
2026-05-07 15:39 52.30609 4.77559 -1 ft 9 kts 37°
2026-05-07 15:39 52.30674 4.77588 -1 ft 10 kts
2026-05-07 15:39 52.30737 4.77595 -1 ft 9 kts
2026-05-07 15:40 52.30809 4.77602 -1 ft 15 kts
2026-05-07 15:40 52.30955 4.77615 -1 ft 27 kts
2026-05-07 15:40 52.31151 4.77633 -1 ft 28 kts
2026-05-07 15:40 52.31343 4.77650 -1 ft 27 kts
2026-05-07 15:41 52.31509 4.77564 -1 ft 25 kts 317°
2026-05-07 15:41 52.31574 4.77310 -1 ft 25 kts 271°
2026-05-07 15:41 52.31568 4.77037 -1 ft 24 kts 267°
2026-05-07 15:41 52.31557 4.76742 -1 ft 26 kts 266°
2026-05-07 15:42 52.31546 4.76454 -1 ft 25 kts 266°
2026-05-07 15:42 52.31536 4.76145 -1 ft 28 kts 266°
2026-05-07 15:42 52.31525 4.75830 -1 ft 27 kts 266°
2026-05-07 15:42 52.31514 4.75528 -1 ft 26 kts 266°
2026-05-07 15:43 52.31505 4.75238 -1 ft 25 kts 267°
2026-05-07 15:43 52.31495 4.74962 -1 ft 24 kts 267°
2026-05-07 15:43 52.31490 4.74733 -1 ft 15 kts 279°
2026-05-07 15:43 52.31509 4.74687 -1 ft 2 kts 320°
2026-05-07 15:44 52.31545 4.74666 -1 ft 6 kts 349°
2026-05-07 15:44 52.31557 4.74665 -1 ft 0 kts 356°
2026-05-07 15:44 52.31580 4.74662 -1 ft 8 kts 356°
2026-05-07 15:45 52.31638 4.74676 0 ft 8 kts 22°
2026-05-07 15:45 52.31666 4.74757 -1 ft 14 kts 83°
2026-05-07 15:45 52.31682 4.75174 -3 ft 70 kts 86°
2026-05-07 15:45 52.31720 4.76318 0 ft 128 kts 86°
2026-05-07 15:46 52.31821 4.80058 395 ft 181 kts 87°
2026-05-07 15:46 52.31470 4.81994 1033 ft 188 kts 129°
2026-05-07 15:46 52.30343 4.83147 1458 ft 200 kts 156°
2026-05-07 15:47 52.28926 4.83842 1642 ft 224 kts 162°
2026-05-07 15:47 52.27381 4.84499 2250 ft 230 kts 162°
2026-05-07 15:47 52.25829 4.85108 3035 ft 230 kts 175°
2026-05-07 15:47 52.24194 4.84975 3486 ft 248 kts 184°
2026-05-07 15:48 52.22405 4.84789 3968 ft 263 kts 182°
2026-05-07 15:48 52.20563 4.84688 4770 ft 265 kts 181°
2026-05-07 15:48 52.18737 4.84631 5600 ft 266 kts 180°
2026-05-07 15:48 52.16891 4.84594 6462 ft 266 kts 180°
2026-05-07 15:49 52.15048 4.84559 7272 ft 265 kts 180°
2026-05-07 15:49 52.13181 4.84523 7947 ft 271 kts 181°
2026-05-07 15:49 52.11287 4.84490 8667 ft 274 kts 181°
2026-05-07 15:49 52.09371 4.84459 9409 ft 276 kts 182°
2026-05-07 15:50 52.07433 4.84420 10098 ft 280 kts 181°
2026-05-07 15:50 52.05453 4.84374 10385 ft 298 kts 182°
2026-05-07 15:50 52.03301 4.84257 10514 ft 319 kts 187°
2026-05-07 15:50 52.01080 4.83436 10713 ft 336 kts 201°